Temperature
0 1 2 3 3 3 5 6 7 8 9 10 11 11 11 12 12 13 13 13 13 13 14 14 15 15 15 15 15 15 16 16 16 16 16 16 16 16 16 16 16 16 16
-1 -1 -0 0 0 1 2 3 4 5 6 8 9 10 10 11 11 12 13 13 13 13 13 13 14 14 15 15 15 15 15 15 15 16 16 16 16 16 16 16 16 16 16
-2 -2 -2 -1 -1 -1 -0 1 2 3 4 5 7 9 10 10 11 11 12 12 13 13 13 13 14 14 14 15 15 16 15 15 15 16 16 16 16 16 16 16 16 16 16
-3 -3 -3 -3 -3 -2 -1 -1 -0 1 2 3 5 7 8 10 10 11 11 12 12 12 12 13 13 13 14 14 15 16 15 15 15 15 15 16 16 16 16 16 16 16 16
-4 -5 -5 -5 -4 -4 -3 -3 -2 -2 -1 1 2 4 6 8 9 10 10 11 12 12 12 12 13 13 13 14 14 15 15 15 15 15 15 15 16 16 16 16 16 16 16
-5 -5 -6 -6 -5 -5 -5 -5 -4 -4 -3 -2 -0 2 4 6 8 10 10 10 11 12 12 12 12 12 13 13 14 14 15 15 15 15 15 15 15 16 16 16 16 16 16
-6 -6 -6 -6 -6 -6 -6 -6 -5 -5 -4 -4 -2 1 4 5 6 8 10 10 10 11 11 12 12 12 12 13 13 14 14 14 15 15 15 15 15 16 16 16 16 16 16
-7 -7 -7 -7 -6 -6 -6 -6 -6 -5 -5 -5 -4 -3 -1 2 5 7 8 9 10 10 11 11 12 12 12 12 12 13 14 14 14 15 15 15 15 15 15 15 15 16 16
-8 -7 -8 -8 -8 -7 -7 -6 -6 -6 -5 -5 -5 -4 -3 -1 -1 5 7 8 9 10 11 11 11 11 12 12 12 12 13 14 14 14 15 15 15 15 15 15 15 15 16
-8 -8 -8 -9 -9 -8 -8 -7 -7 -6 -6 -5 -5 -5 -4 -4 -3 -1 5 7 7 8 9 11 11 11 11 12 12 12 13 13 13 14 14 15 15 15 15 15 15 15 15
-9 -9 -9 -9 -9 -9 -9 -8 -8 -7 -6 -6 -6 -5 -5 -4 -4 -3 -2 3 5 6 7 9 10 11 11 11 12 12 12 13 13 13 14 14 14 14 14 14 15 15 15
-9 -10 -10 -10 -10 -10 -10 -9 -9 -8 -7 -7 -6 -6 -5 -5 -4 -4 -2 -1 0 4 6 7 9 10 10 11 11 11 12 12 13 13 13 14 14 14 14 14 14 14 14
-10 -10 -11 -11 -11 -10 -10 -10 -9 -8 -8 -7 -7 -6 -6 -5 -5 -4 -4 -3 -1 1 3 6 8 9 10 10 11 11 11 12 12 13 13 13 13 14 14 14 14 14 14
-11 -11 -11 -11 -11 -11 -11 -11 -10 -9 -8 -8 -7 -7 -6 -6 -6 -5 -4 -3 -2 -0 1 3 6 8 8 9 10 10 11 11 12 12 12 12 13 13 13 13 14 14 14
-12 -12 -12 -12 -12 -12 -11 -11 -10 -9 -9 -8 -7 -7 -7 -6 -6 -5 -4 -3 -3 -1 1 3 5 7 8 8 9 10 10 11 11 12 12 12 12 13 13 13 13 13 13
-12 -12 -12 -12 -12 -12 -12 -11 -10 -9 -9 -8 -7 -7 -7 -6 -6 -5 -4 -3 -3 -2 -0 2 4 6 7 8 8 9 9 10 10 11 12 12 12 12 12 13 13 13 13
-13 -13 -13 -13 -13 -12 -12 -11 -10 -9 -9 -8 -8 -7 -7 -7 -6 -5 -4 -3 -2 -2 -1 1 3 5 6 7 7 8 9 9 10 10 11 12 12 12 12 12 12 13 13
-13 -13 -14 -14 -13 -13 -12 -11 -10 -9 -9 -8 -8 -8 -7 -7 -6 -5 -4 -3 -2 -1 0 1 2 4 5 6 6 7 8 9 9 10 10 11 12 12 12 12 12 12 12
-14 -14 -14 -14 -14 -13 -12 -11 -10 -9 -9 -9 -8 -8 -7 -7 -6 -5 -4 -3 -2 -1 -0 1 2 3 3 5 6 6 7 8 9 9 10 10 11 11 12 12 12 12 12
-14 -14 -14 -14 -14 -13 -12 -11 -10 -9 -8 -8 -8 -8 -7 -7 -6 -5 -4 -3 -2 -1 -1 -0 1 2 3 4 5 6 6 7 8 8 9 9 9 10 11 11 11 11 11
-14 -14 -14 -14 -13 -13 -12 -10 -9 -8 -9 -9 -9 -8 -8 -7 -7 -6 -5 -4 -3 -2 -1 -1 0 1 2 3 4 5 6 6 7 7 8 8 9 9 9 9 10 10 10
-14 -14 -14 -14 -13 -13 -12 -10 -9 -9 -9 -9 -9 -9 -9 -8 -8 -7 -7 -6 -4 -3 -3 -2 -1 0 1 2 3 4 5 6 6 7 7 8 8 8 8 8 9 9 8
-14 -14 -14 -14 -13 -13 -11 -9 -9 -9 -9 -9 -9 -9 -9 -9 -9 -8 -8 -7 -7 -6 -5 -4 -2 -1 -0 1 2 3 4 5 6 6 7 7 7 7 6 6 6 6 6
-14 -14 -14 -14 -13 -13 -11 -10 -10 -10 -10 -10 -10 -10 -10 -10 -10 -10 -9 -8 -8 -7 -7 -6 -5 -4 -3 -2 1 2 3 4 5 6 6 6 5 5 5 5 4 4 4
-14 -14 -14 -14 -13 -13 -12 -10 -11 -10 -10 -11 -10 -10 -10 -10 -10 -10 -10 -10 -8 -7 -7 -7 -6 -5 -4 -2 0 2 3 4 4 4 5 5 4 4 4 4 3 3 3
-14 -14 -14 -13 -13 -13 -12 -11 -11 -11 -12 -12 -11 -11 -11 -11 -10 -10 -11 -11 -10 -9 -7 -6 -5 -4 -3 -2 -0 1 2 3 3 3 4 3 3 3 2 2 2 2 2
Wind_Speed
16 19 19 20 20 19 19 16 15 15 15 17 17 14 9 11 12 11 10 18 20 18 16 17 18 18 18 18 19 20 21 21 20 18 17 16 14 13 12 12 12 14 15
21 20 17 18 18 21 20 17 15 12 10 12 17 16 13 11 12 13 12 17 22 20 18 18 19 20 20 20 19 20 21 23 23 21 20 18 17 15 14 13 13 14 14
23 22 17 15 19 23 22 18 16 13 11 13 16 18 16 13 11 10 10 10 15 20 20 19 19 20 21 22 21 20 21 23 24 23 22 21 19 17 15 15 14 14 14
23 21 16 15 22 23 20 13 12 13 13 12 13 14 15 15 17 13 9 8 8 13 19 22 20 21 21 22 22 21 20 22 25 25 24 23 21 20 18 17 16 16 15
23 21 18 17 20 17 15 13 14 13 14 14 14 13 12 14 15 16 14 9 8 8 11 19 23 23 22 22 22 22 21 20 23 26 27 26 24 23 21 20 18 17 16
23 20 18 20 20 13 11 12 14 13 12 14 15 15 14 13 14 14 16 11 7 9 11 11 14 18 23 22 23 23 23 22 21 25 27 27 26 25 24 23 21 19 18
23 20 17 18 18 12 13 15 15 15 13 12 12 14 12 11 13 13 13 12 10 8 9 11 12 12 14 23 24 24 24 24 23 24 27 28 28 27 26 25 24 22 20
21 20 18 14 16 12 12 14 15 11 11 11 11 11 7 8 7 11 10 11 12 9 9 8 11 11 11 12 18 24 24 25 26 25 28 29 29 28 27 26 25 24 22
21 18 18 18 15 11 11 14 14 14 11 10 9 7 6 6 12 11 12 12 10 7 8 8 10 10 13 11 13 21 25 24 25 26 28 29 30 29 28 27 26 25 23
21 18 17 18 16 13 12 14 14 14 12 11 9 7 9 10 7 8 12 12 14 13 11 8 9 10 11 10 12 16 23 25 25 26 27 29 30 30 30 29 28 26 25
20 20 19 17 15 12 11 12 15 15 12 11 10 8 8 9 11 9 14 16 12 11 11 12 8 7 8 9 9 13 19 23 26 25 25 28 30 31 31 31 30 28 27
13 18 21 19 17 13 12 13 13 16 14 13 11 10 9 8 9 9 11 17 17 15 14 11 10 6 6 7 8 9 14 19 22 25 24 25 27 29 31 32 31 30 29
10 8 19 18 16 16 17 17 13 15 14 14 12 10 10 10 11 12 13 15 18 16 11 12 9 8 4 5 7 10 11 15 15 16 19 22 24 26 29 31 32 32 31
9 15 19 19 19 19 19 16 11 14 14 14 15 13 10 10 11 12 13 13 16 16 12 10 9 9 5 4 9 13 10 14 14 12 12 14 18 21 23 26 30 32 32
16 20 19 17 19 19 18 15 12 15 15 14 14 13 11 10 11 12 12 13 14 15 16 10 6 5 5 2 7 8 8 13 14 15 15 15 15 18 21 23 26 29 31
18 17 15 14 16 17 17 13 14 15 17 16 13 12 12 10 12 12 12 13 14 15 14 9 8 9 10 8 3 2 5 9 13 16 17 18 18 18 20 22 24 27 28
15 14 14 13 15 16 14 15 17 18 19 16 13 13 14 14 13 12 12 13 14 15 16 12 10 10 9 8 5 2 4 5 7 16 19 20 19 19 19 20 22 25 29
15 16 16 14 17 17 16 17 18 18 19 15 13 14 14 13 15 13 12 12 12 12 11 11 8 8 8 6 6 5 4 4 5 11 17 19 20 20 20 21 24 29 33
12 14 13 15 17 17 17 17 16 18 18 13 12 13 14 15 14 13 13 11 10 9 6 7 7 6 6 5 5 4 4 4 3 6 13 16 18 19 20 23 27 31 34
12 11 10 13 16 17 17 17 16 17 13 9 10 12 13 14 14 15 11 9 8 7 6 6 7 5 5 5 4 4 4 4 3 3 4 7 14 19 23 27 30 31 33
15 11 12 14 16 16 15 19 17 11 6 7 8 11 14 18 21 18 14 14 11 5 4 5 5 4 3 3 4 4 5 4 2 3 5 5 9 10 14 25 30 34 36
12 12 13 15 16 17 27 28 13 7 7 8 9 11 15 17 21 25 26 25 24 15 9 5 3 3 3 4 4 4 5 5 4 3 6 6 9 11 10 13 28 35 36
11 11 13 14 15 19 30 25 20 13 11 10 11 11 13 16 19 16 21 24 23 27 23 13 9 8 7 6 7 6 6 6 4 3 8 7 8 11 10 20 31 34 35
9 9 11 13 14 19 29 26 23 14 11 11 12 14 14 15 18 18 16 17 17 18 20 14 12 12 12 11 7 6 4 6 6 3 5 8 8 10 12 16 30 32 32
9 8 10 11 13 17 27 27 23 12 11 12 13 15 17 16 25 26 18 16 16 17 21 25 24 21 24 25 19 6 3 12 9 3 2 6 8 11 11 12 21 31 32
9 10 10 10 12 13 23 26 23 12 12 11 11 14 21 23 27 26 17 16 16 16 17 18 19 22 19 22 27 17 8 6 10 5 1 6 8 8 8 7 9 17 23
Wind_Direction
350 348 339 338 337 345 344 334 327 329 329 324 320 316 297 286 270 246 237 195 192 202 223 234 235 234 230 226 224 216 206 199 196 192 187 187 184 181 177 176 176 176 175
351 345 337 337 340 344 336 330 329 328 326 326 325 323 315 298 287 265 241 209 200 204 216 227 233 236 235 230 227 223 214 206 198 193 189 188 185 183 181 180 179 179 179
352 344 339 338 345 342 336 336 330 333 332 330 326 324 321 317 304 283 262 229 203 209 214 221 227 233 237 236 231 229 220 211 200 193 190 188 185 183 184 183 181 179 178
349 344 339 343 345 341 339 338 340 340 332 327 323 318 315 314 313 305 288 267 221 204 213 219 221 227 233 236 235 231 226 215 204 194 190 189 186 185 187 186 183 181 179
346 344 335 341 341 338 340 337 336 335 332 330 324 314 313 313 310 310 301 279 260 228 199 210 217 221 226 232 234 233 228 220 209 199 192 189 187 188 190 188 186 185 182
344 342 335 337 338 335 337 332 328 333 333 331 328 323 314 308 305 298 295 286 263 245 219 204 207 221 224 226 231 232 229 222 212 204 195 189 189 190 191 190 188 187 185
342 340 339 338 335 333 333 331 331 330 332 331 331 326 307 289 272 277 278 276 263 247 229 214 206 203 214 224 227 228 228 225 214 206 199 194 192 192 192 191 188 186 186
341 341 343 340 337 332 329 330 328 326 329 338 330 325 320 312 345 308 293 274 257 239 235 222 207 206 205 205 220 224 225 226 219 209 203 199 196 194 193 193 190 187 187
336 342 343 337 333 332 329 328 327 329 327 327 331 331 324 330 329 307 312 325 322 278 239 226 214 207 209 204 203 217 220 223 225 215 205 201 198 197 196 194 194 191 188
332 338 341 338 335 333 328 327 331 324 323 323 323 315 307 307 300 309 311 312 320 320 307 265 222 206 204 205 202 202 213 217 223 221 209 202 202 202 201 197 196 194 189
331 337 339 336 332 329 328 326 325 321 318 313 309 305 300 299 287 287 293 301 313 313 317 312 290 221 197 198 201 202 206 214 218 219 214 207 205 206 206 202 198 195 191
331 336 337 333 328 328 329 324 322 318 315 310 307 303 299 294 295 289 285 293 299 304 311 307 307 277 218 193 199 212 211 213 217 215 213 210 207 207 208 206 201 195 193
331 328 333 330 326 329 329 324 320 316 314 312 306 303 300 292 289 282 281 285 290 293 296 298 294 296 250 199 207 225 226 217 218 217 212 210 210 208 208 207 201 196 194
322 325 330 327 328 330 327 321 315 316 315 313 306 300 299 294 287 278 270 274 281 286 281 270 288 285 277 216 208 212 214 212 214 218 217 217 216 213 210 208 203 196 193
325 328 326 330 331 329 324 318 315 315 312 309 303 297 296 294 288 279 268 258 260 270 279 284 285 296 323 268 210 201 207 211 217 226 228 226 223 220 217 213 204 196 190
325 324 327 331 332 326 321 317 318 312 312 308 302 300 302 298 293 283 270 259 250 254 263 280 289 307 325 326 282 199 221 217 220 227 234 235 230 224 220 215 205 194 183
325 327 330 332 329 323 321 317 318 317 316 310 312 314 308 302 296 290 278 263 250 245 253 265 273 281 293 305 305 289 266 234 225 224 230 233 229 223 219 212 198 182 170
325 331 331 330 328 324 318 315 316 319 317 317 321 318 314 311 302 294 286 277 263 247 247 258 265 265 260 264 253 236 243 231 215 224 225 225 223 220 215 202 182 167 161
326 330 330 329 326 319 314 310 308 312 312 311 316 320 320 316 312 306 292 279 274 265 259 267 270 259 253 246 235 226 227 221 203 216 219 215 208 198 186 173 163 156 151
326 325 328 326 320 315 308 302 302 305 308 316 327 331 327 327 333 332 327 318 288 267 259 264 268 262 255 247 218 207 211 205 187 176 170 168 168 162 157 152 148 143 138
328 323 324 320 317 315 311 310 304 310 336 337 343 351 348 356 3 3 5 0 352 326 286 264 264 265 259 244 223 197 194 173 139 161 140 133 137 138 141 137 133 132 131
324 326 322 318 318 323 322 330 8 35 17 6 12 11 3 3 13 10 14 18 20 22 15 4 350 343 341 318 285 224 184 166 178 180 137 123 118 117 118 122 127 126 124
324 324 321 320 321 323 334 355 32 30 20 24 23 21 15 10 22 14 12 17 19 25 33 33 26 13 353 338 323 277 214 171 152 153 133 112 108 113 116 123 122 122 123
320 317 319 324 328 334 345 10 28 22 24 25 22 22 20 12 24 24 15 18 18 18 22 27 26 20 10 359 332 290 257 130 103 74 126 115 110 109 114 122 125 124 125
320 317 321 328 334 339 350 17 30 16 26 24 19 17 21 19 24 28 19 19 21 17 15 21 25 27 25 22 22 7 197 160 147 116 47 107 116 102 89 94 112 118 122
327 328 329 331 335 338 354 16 36 27 26 22 15 11 16 23 24 30 24 19 24 18 11 11 17 19 21 23 27 23 348 181 150 135 56 116 127 115 93 59 73 103 113
Height
1522 1517 1513 1509 1506 1502 1498 1495 1493 1491 1490 1490 1489 1489 1490 1490 1492 1494 1495 1496 1498 1499 1501 1502 1505 1507 1510 1513 1516 1520 1522 1525 1528 1531 1534 1537 1541 1544 1547 1550 1553 1556 1559
1522 1517 1512 1507 1504 1499 1496 1493 1490 1487 1485 1484 1483 1482 1483 1483 1484 1486 1489 1490 1491 1493 1494 1496 1497 1500 1504 1507 1510 1514 1516 1520 1523 1527 1530 1534 1537 1540 1543 1547 1550 1553 1556
1521 1516 1511 1506 1502 1497 1494 1491 1488 1485 1481 1479 1478 1477 1476 1477 1478 1479 1481 1483 1484 1486 1488 1490 1491 1493 1497 1500 1504 1508 1511 1515 1518 1522 1526 1530 1533 1536 1540 1543 1547 1550 1553
1519 1514 1510 1506 1500 1495 1492 1488 1485 1481 1478 1475 1472 1471 1471 1470 1471 1472 1474 1475 1478 1480 1482 1483 1485 1488 1490 1493 1497 1501 1505 1509 1513 1516 1521 1525 1528 1532 1536 1540 1543 1547 1550
1518 1514 1510 1505 1498 1493 1490 1487 1483 1479 1475 1471 1468 1466 1465 1464 1464 1465 1467 1470 1472 1474 1476 1478 1480 1482 1484 1487 1490 1494 1498 1503 1507 1511 1516 1519 1523 1527 1531 1535 1539 1543 1547
1517 1513 1508 1503 1498 1493 1489 1486 1482 1478 1473 1469 1464 1460 1458 1458 1458 1459 1461 1464 1467 1469 1471 1473 1474 1476 1478 1480 1483 1487 1491 1496 1500 1504 1510 1514 1518 1522 1527 1531 1535 1539 1543
1515 1511 1507 1502 1498 1494 1490 1486 1482 1477 1472 1467 1461 1454 1451 1451 1452 1454 1456 1457 1460 1463 1465 1467 1468 1470 1472 1474 1477 1480 1484 1489 1493 1498 1503 1508 1513 1517 1521 1526 1530 1534 1538
1514 1511 1506 1501 1497 1493 1489 1485 1481 1477 1472 1468 1464 1457 1451 1446 1446 1447 1449 1451 1453 1456 1459 1460 1462 1464 1467 1469 1471 1474 1477 1481 1486 1491 1496 1502 1507 1511 1516 1520 1525 1529 1534
1513 1509 1504 1500 1495 1492 1488 1484 1480 1476 1471 1467 1466 1464 1459 1452 1445 1441 1441 1443 1445 1449 1452 1454 1455 1457 1460 1463 1465 1468 1470 1474 1479 1484 1489 1494 1500 1505 1510 1514 1520 1524 1528
1510 1506 1502 1498 1493 1489 1485 1481 1477 1474 1470 1466 1463 1462 1461 1457 1454 1443 1435 1435 1436 1438 1443 1447 1448 1450 1453 1456 1459 1461 1464 1468 1472 1477 1482 1487 1493 1498 1504 1508 1514 1519 1523
1506 1503 1499 1495 1491 1487 1482 1478 1473 1470 1467 1464 1461 1458 1455 1454 1452 1449 1440 1430 1429 1430 1433 1436 1440 1443 1446 1449 1452 1455 1459 1462 1466 1470 1475 1481 1486 1492 1498 1503 1508 1513 1518
1503 1499 1495 1491 1487 1484 1479 1474 1470 1467 1463 1460 1457 1454 1451 1449 1447 1446 1442 1434 1427 1424 1426 1428 1431 1435 1439 1442 1446 1450 1453 1457 1461 1464 1469 1474 1480 1485 1491 1497 1502 1507 1513
1500 1496 1492 1487 1483 1479 1475 1470 1466 1462 1459 1456 1452 1449 1446 1444 1443 1442 1440 1435 1427 1421 1422 1423 1425 1429 1433 1436 1440 1444 1447 1450 1455 1459 1463 1468 1474 1479 1485 1490 1496 1500 1506
1499 1494 1489 1484 1479 1474 1470 1465 1461 1458 1454 1450 1447 1444 1441 1438 1437 1435 1435 1434 1428 1420 1416 1419 1421 1424 1427 1430 1434 1438 1440 1444 1449 1453 1457 1462 1467 1472 1478 1484 1489 1494 1499
1497 1491 1486 1481 1475 1470 1465 1461 1457 1453 1449 1445 1442 1439 1436 1433 1430 1428 1427 1428 1428 1423 1413 1409 1414 1417 1421 1425 1428 1432 1435 1438 1443 1447 1451 1455 1460 1465 1471 1477 1482 1488 1493
1495 1489 1483 1478 1472 1466 1461 1457 1453 1448 1444 1440 1437 1434 1430 1427 1423 1420 1419 1419 1419 1419 1414 1407 1408 1410 1414 1419 1423 1427 1430 1434 1437 1440 1444 1448 1453 1458 1464 1470 1475 1481 1486
1492 1486 1480 1474 1468 1463 1458 1453 1448 1444 1439 1436 1433 1429 1425 1421 1417 1414 1411 1410 1410 1410 1408 1405 1406 1408 1411 1414 1418 1423 1426 1429 1432 1434 1438 1441 1445 1451 1457 1462 1468 1474 1479
1489 1483 1477 1471 1465 1460 1454 1449 1444 1440 1436 1433 1429 1425 1421 1416 1412 1408 1404 1402 1401 1401 1402 1401 1402 1404 1406 1410 1414 1418 1421 1424 1427 1429 1432 1435 1439 1444 1449 1454 1461 1467 1473
1485 1480 1474 1468 1462 1456 1451 1446 1441 1437 1434 1431 1427 1422 1418 1413 1408 1402 1398 1395 1393 1393 1394 1396 1396 1399 1401 1405 1408 1412 1415 1419 1421 1423 1425 1428 1432 1437 1442 1447 1453 1460 1467
1482 1477 1472 1466 1459 1453 1447 1442 1437 1433 1431 1428 1425 1420 1416 1411 1405 1398 1393 1389 1387 1387 1388 1390 1391 1393 1396 1399 1402 1406 1410 1414 1416 1418 1420 1423 1426 1430 1436 1441 1447 1454 1461
1480 1475 1470 1463 1457 1451 1444 1439 1432 1430 1429 1427 1423 1419 1414 1410 1403 1397 1391 1386 1383 1382 1383 1384 1387 1388 1391 1393 1396 1400 1405 1408 1411 1414 1416 1419 1422 1426 1432 1438 1444 1450 1457
1478 1473 1467 1461 1455 1449 1442 1435 1428 1428 1427 1425 1422 1419 1414 1409 1403 1396 1391 1385 1382 1380 1379 1379 1381 1382 1384 1388 1391 1395 1400 1403 1407 1410 1412 1416 1419 1424 1429 1435 1440 1447 1454
1476 1471 1466 1461 1455 1448 1441 1436 1431 1429 1428 1426 1423 1419 1415 1410 1404 1397 1391 1386 1382 1379 1378 1376 1377 1378 1380 1382 1384 1388 1393 1398 1402 1406 1408 1411 1415 1421 1427 1434 1440 1446 1453
1476 1471 1466 1461 1456 1449 1443 1438 1434 1432 1430 1428 1425 1422 1418 1412 1407 1400 1394 1388 1383 1379 1378 1376 1376 1376 1377 1377 1379 1383 1387 1393 1398 1402 1404 1407 1413 1421 1428 1435 1443 1449 1456
1475 1471 1467 1462 1457 1451 1446 1442 1438 1435 1432 1430 1427 1424 1421 1416 1411 1404 1397 1391 1386 1383 1380 1378 1376 1374 1373 1373 1374 1379 1384 1387 1391 1395 1398 1402 1410 1418 1427 1436 1445 1453 1459
1476 1471 1467 1463 1459 1454 1450 1446 1441 1438 1435 1433 1430 1427 1424 1420 1414 1408 1402 1396 1391 1386 1383 1379 1376 1373 1372 1371 1372 1374 1378 1382 1384 1389 1393 1399 1407 1414 1427 1437 1446 1454 1461